Location: *
(46.1833°N, 22.7667°E)
Time: 07:17:47
(UTC+00:00)

MetOp-A - Pass Details

Date: 17 September 2019
Orbit: 820 x 821 km, 98.6° (Epoch: 17 October)

Event Time Altitude Azimuth Distance (km) Brightness Sun altitude
Exits shadow 18:16:35 29° 125° (SE) 1,468 4.9 -17.5°
Maximum altitude 18:18:58 48° 69° (ENE) 1,065 4.4 -17.9°
Drops below altitude 10° 18:24:06 10° 356° (N) 2,428 6.9 -18.7°
Sets 18:26:31 0° 351° (N) 3,365 7.8 -19.1°
